Location: Austin, TX
(30.3000°N, 97.7500°W)
Time: 11:38:12
(UTC-05:00)

Cosmos 1666 - Visible Passes

Search period start: 27 June 2016 00:00
Search period end: 07 July 2016 00:00
Orbit: 504 x 527 km, 82.5° (Epoch: 26 June)

Date Brightness Start Highest point End Pass type
(mag) Time Alt. Az. Time Alt. Az. Time Alt. Az.
29 Jun 3.9 05:54:04 10° SSE 05:57:47 45° E 06:01:31 10° NNE visible
30 Jun 4.3 05:39:10 10° SSE 05:42:44 36° E 05:46:19 10° NNE visible
01 Jul 4.7 05:24:20 10° SSE 05:27:42 28° E 05:31:04 10° NNE visible
02 Jul 5.1 05:09:34 10° SE 05:12:39 23° E 05:15:44 10° NE visible
03 Jul 5.3 04:54:54 10° SE 04:57:37 18° E 05:00:20 10° NE visible
04 Jul 5.5 04:40:22 10° ESE 04:42:35 15° E 04:44:48 10° NE visible
05 Jul 5.7 04:26:06 10° ESE 04:27:33 12° E 04:29:01 10° ENE visible
05 Jul 3.7 05:59:28 10° SW 06:02:54 30° W 06:06:20 10° NNW visible
06 Jul 3.4 05:44:30 12° SSW 05:47:47 37° W 05:51:24 10° NNW visible
